P/2001 R1 ( LONEOS ) 2008

Japanese version
Home page
Total 5,708 html files since Dec. 4, 1995
Updated on April 12, 2008

---------------------------------------------------------------------

* Profile

* Orbital Elements

The following orbital elements are taken from MPC 54169:

Epoch 2008 Aug. 2.0 TT = JDT 2454680.5
T 2008 Aug. 5.1808 TT                                   MPC
q   1.345008             (2000.0)            P               Q
n   0.1529054      Peri.   24.9621      +0.4978592      -0.8643672
a   3.463545       Node    35.3006      +0.7737272      +0.4058343
e   0.611667       Incl.    7.0326      +0.3917683      +0.2969308
P   6.45
From 114 observations 2001 Aug. 19-2002 Mar. 11, mean residual 0".8.

* Finding Charts

* Magnitudes Graph

        m1 = 14.0 + 5 log d + 10.0 log r

---------------------------------------------------------------------

The orbital elements are published at the MPC Ephemerides and Orbital Elements.
The charts are made with StellaNavigator Ver.2.0 for Windows (AstroArts / ASCII).
The magnitudes graphs are made with Comet for Windows.

---------------------------------------------------------------------

Copyright(C) 1995-2007 Seiichi Yoshida (comet@aerith.net). All rights reserved.